User: anonymous   Login
Location: Cronhütte
(48.9135°N, 9.6869°E)
Time: 06:22:40
(UTC+00:00)
Language:

GP-B - Orbit

View from above orbital plane
View from above orbital plane
View from above satellite
View from above satellite

Ground track
Ground track

The orbit data is extracted from the following two-line orbital elements,

1 28230U 04014A   24205.35573659  .00001938  00000-0  24852-3 0  9995
2 28230  89.8256  64.3405 0001957  94.1934 265.9514 14.80952717549564
Epoch (UTC): 23 July 2024 08:32:15
Eccentricity: 0.0001957
inclination: 89.8256°
perigee height: 625 km
apogee height: 627 km
right ascension of ascending node: 64.3405°
argument of perigee: 94.1934°
revolutions per day: 14.80952717
mean anomaly at epoch: 265.9514°
orbit number at epoch: 54956

The dashed part of the orbit path shows where the satellite is in the earth's shadow,  

DLR